TimeCST,TemperatureF,Dew PointF,Humidity,Sea Level PressureIn,VisibilityMPH,Wind Direction,Wind SpeedMPH,Gust SpeedMPH,PrecipitationIn,Events,Conditions,WindDirDegrees,DateUTC
12:53 AM,33.1,32.0,96,29.73,1.5,SSE,4.6,-,N/A,,Overcast,160,2013-01-11 06:53:00
1:53 AM,33.1,32.0,96,29.72,1.0,SSE,6.9,-,N/A,,Mist,150,2013-01-11 07:53:00
2:20 AM,33.8,32.0,93,29.70,0.8,SSE,8.1,-,N/A,,Mist,160,2013-01-11 08:20:00
2:42 AM,33.8,32.0,93,29.69,1.0,SSE,10.4,-,N/A,,Mist,160,2013-01-11 08:42:00
2:53 AM,33.1,32.0,96,29.71,1.2,SSE,8.1,-,N/A,,Overcast,160,2013-01-11 08:53:00
3:29 AM,33.8,32.0,93,29.67,0.8,SSE,9.2,-,N/A,,Mist,150,2013-01-11 09:29:00
3:53 AM,33.1,32.0,96,29.68,0.5,South,8.1,-,N/A,Fog,Fog,170,2013-01-11 09:53:00
4:53 AM,34.0,33.1,96,29.64,0.5,SE,8.1,-,N/A,Fog,Fog,130,2013-01-11 10:53:00
5:17 AM,33.8,33.8,100,29.62,0.2,SSE,9.2,-,N/A,Fog,Fog,160,2013-01-11 11:17:00
5:53 AM,33.1,32.0,96,29.63,0.2,SSE,8.1,-,N/A,Fog,Fog,150,2013-01-11 11:53:00
6:20 AM,33.8,33.8,100,29.61,0.2,South,8.1,-,N/A,Fog,Fog,170,2013-01-11 12:20:00
6:53 AM,33.1,32.0,96,29.63,0.2,SSE,8.1,-,N/A,Fog,Fog,160,2013-01-11 12:53:00
7:53 AM,33.8,33.8,100,29.61,0.2,South,11.5,-,N/A,Fog,Fog,180,2013-01-11 13:53:00
8:25 AM,33.8,33.8,100,29.60,0.2,South,10.4,-,N/A,Fog,Fog,180,2013-01-11 14:25:00
8:53 AM,34.0,33.1,96,29.63,0.2,South,9.2,-,N/A,Fog,Fog,170,2013-01-11 14:53:00
9:53 AM,35.1,34.0,96,29.61,0.2,South,10.4,-,N/A,Fog,Fog,170,2013-01-11 15:53:00
10:53 AM,36.0,36.0,100,29.60,0.2,South,6.9,-,N/A,Fog,Fog,180,2013-01-11 16:53:00
11:53 AM,37.4,37.4,100,29.54,0.2,SSE,9.2,-,N/A,Fog,Fog,150,2013-01-11 17:53:00
12:53 PM,39.0,37.9,96,29.51,0.2,South,10.4,-,N/A,Fog,Fog,170,2013-01-11 18:53:00
1:53 PM,39.2,39.2,100,29.47,0.2,South,13.8,-,N/A,Fog,Fog,170,2013-01-11 19:53:00
2:49 PM,41.0,39.2,93,29.48,0.8,South,10.4,19.6,N/A,,Overcast,180,2013-01-11 20:49:00
2:53 PM,41.0,39.9,96,29.49,0.8,South,11.5,-,N/A,,Overcast,170,2013-01-11 20:53:00
3:18 PM,41.0,39.2,93,29.47,0.2,SSE,13.8,-,N/A,Fog,Fog,160,2013-01-11 21:18:00
3:27 PM,41.0,39.2,93,29.47,0.8,SSE,13.8,-,N/A,,Overcast,160,2013-01-11 21:27:00
3:39 PM,41.0,39.2,93,29.47,1.2,SSE,12.7,-,N/A,,Overcast,160,2013-01-11 21:39:00
3:53 PM,39.9,39.0,97,29.48,0.5,SSE,10.4,-,N/A,Fog,Fog,150,2013-01-11 21:53:00
4:01 PM,39.2,39.2,100,29.47,0.2,SSE,10.4,-,N/A,Fog,Fog,150,2013-01-11 22:01:00
4:53 PM,39.9,39.0,97,29.49,0.2,SSE,11.5,-,N/A,Fog,Fog,160,2013-01-11 22:53:00
5:37 PM,39.2,39.2,100,29.46,0.2,SSE,11.5,-,N/A,Fog,Fog,150,2013-01-11 23:37:00
5:53 PM,39.9,37.9,93,29.48,0.2,SSE,12.7,-,N/A,Fog,Fog,160,2013-01-11 23:53:00
6:53 PM,39.0,37.9,96,29.47,0.2,SSE,12.7,-,N/A,Fog,Fog,150,2013-01-12 00:53:00
7:51 PM,37.4,37.4,100,29.45,0.2,South,13.8,-,N/A,Fog,Fog,170,2013-01-12 01:51:00
7:53 PM,37.9,37.0,97,29.46,0.2,SSE,13.8,-,N/A,Fog,Fog,160,2013-01-12 01:53:00
8:27 PM,37.4,37.4,100,29.44,0.5,SSE,13.8,-,N/A,Fog,Fog,160,2013-01-12 02:27:00
8:53 PM,37.0,36.0,96,29.46,0.5,South,10.4,-,N/A,Fog,Fog,180,2013-01-12 02:53:00
9:17 PM,35.6,35.6,100,29.45,0.5,South,10.4,-,N/A,Fog,Fog,180,2013-01-12 03:17:00
9:53 PM,34.0,34.0,100,29.47,0.5,South,6.9,-,N/A,Fog,Fog,190,2013-01-12 03:53:00
10:18 PM,33.8,33.8,100,29.45,1.2,South,5.8,-,N/A,,Overcast,190,2013-01-12 04:18:00
10:28 PM,33.8,33.8,100,29.46,3.0,South,5.8,-,N/A,,Overcast,180,2013-01-12 04:28:00
10:53 PM,35.6,33.8,93,29.45,4.0,South,6.9,-,N/A,,Overcast,170,2013-01-12 04:53:00
11:53 PM,37.9,37.0,97,29.47,7.0,WSW,10.4,-,N/A,,Overcast,240,2013-01-12 05:53:00